Regional Weather Roundup
Issued by NWS

Home | Current Version | Previous Version | Text Only | Print | Product List | Glossary On
Versions: 1 2 3 4 5 6 7 8 9 10 11 12 13 14 15 16 17 18 19 20 21 22 23 24 25 26 27 28 29 30 31 32 33 34 35 36 37 38 39 40 41 42 43 44 45 46 47 48 49 50
358
ASUS44 KBMX 180810
RWRAL

ALABAMA REGIONAL WEATHER ROUNDUP
NATIONAL WEATHER SERVICE BIRMINGHAM AL
200 AM CST SAT NOV 18 2017

NOTE: "FAIR" INDICATES FEW OR NO CLOUDS BELOW 12,000 FEET
WITH NO SIGNIFICANT WEATHER AND/OR OBSTRUCTIONS TO VISIBILITY.

THE REMARK "TC" DENOTES TEMPERATURE IN DEGREES CELSIUS.

ALZ001>011-014-016>018-020-180900-
NORTH ALABAMA

CITY           SKY/WX    TMP DP  RH WIND       PRES   REMARKS
MUSCLE SHOALS  CLOUDY    59  51  75 S9        29.90F
HUNTSVILLE     MOCLDY    58  46  64 S16       29.93F
DECATUR        CLEAR     57  47  69 S16       29.92F
HALEYVILLE     MOCLDY    55  53  93 S10       29.94S
GADSDEN        MOCLDY    45  44  97 NE3       30.00F
$$

ALZ012-013-022-023-030>036-040>044-180900-
WEST CENTRAL ALABAMA

CITY           SKY/WX    TMP DP  RH WIND       PRES   REMARKS
TUSCALOOSA     PTCLDY    60  58  92 S9        29.95F
DEMOPOLIS        N/A     59  56  92 SE5       29.95F
$$

ALZ015-024>026-033>036-041>044-180900-
CENTRAL ALABAMA

CITY           SKY/WX    TMP DP  RH WIND       PRES   REMARKS
BIRMINGHAM     CLOUDY    59  47  64 VRB6      30.00S
MONTGOMERY     CLEAR     50  43  77 E5        30.01F
SHELBY CO ARPT MOCLDY    55  48  77 SE5       29.99S
MAXWELL AFB    CLEAR     50  47  89 CALM      29.99F
GREENVILLE     FAIR      53  49  86 S3        30.00F
SELMA          FAIR      55  54  94 SE5       29.98F
PRATTVILLE     FAIR      47  46  99 CALM      30.00F
BESSEMER       PTSUNNY   55  48  77 SE7       29.98S
TALLADEGA      CLOUDY    56  44  64 CALM      30.01S
PELL CITY      CLOUDY    46  46 100 CALM      30.00F
MARION         FAIR      54  54  99 SE5       29.97S
SYLACAUGA      CLOUDY    58  46  66 CALM      30.01S
$$

ALZ019-021-028-029-037-038-045>048-180900-
EAST CENTRAL ALABAMA

CITY           SKY/WX    TMP DP  RH WIND       PRES   REMARKS
ANNISTON       CLOUDY    47  43  86 CALM      30.01S
ALEXANDER CITY CLOUDY    48  46  93 CALM      30.02F
AUBURN         PTCLDY    51  40  65 SE6       30.04S
$$

ALZ051>064-180900-
SOUTHWEST ALABAMA

CITY           SKY/WX    TMP DP  RH WIND       PRES   REMARKS
MOBILE         PTCLDY    62  60  93 SE5       29.98S FOG
BROOKLEY FIELD MOCLDY    67  66  97 SE6       29.99S
EVERGREEN      CLOUDY    51  50  96 CALM      30.00F FOG
$$

ALZ049-050-065>069-180900-
SOUTHEAST ALABAMA

CITY           SKY/WX    TMP DP  RH WIND       PRES   REMARKS
DOTHAN         CLEAR     47  45  93 CALM      30.06F
OZARK          CLEAR     48  44  86 CALM      30.02F
TROY           CLEAR     48  46  93 CALM      30.03S
EUFAULA        FAIR      43  42  97 CALM      30.03S
$$




USA.gov is the U.S. government's official web portal to all federal, state and local government web resources and services.